EHI
0 0 0 0 0 0 0 0 0 0 0 0 0 0 0 0 0 0 0 0 0 0 0 0 0 0 0 0 0 0 0 0 0 1 2 2 2 1 0 0 0 0 0 0
0 0 0 0 0 0 0 0 0 0 0 0 0 0 0 0 0 0 0 0 0 0 0 0 0 0 0 0 0 0 0 0 0 0 1 2 2 2 1 0 0 0 0 0
0 0 0 0 0 0 0 0 0 0 0 0 0 0 0 0 0 0 0 0 0 0 0 0 0 0 0 0 0 0 0 0 0 0 0 1 1 1 1 0 0 0 0 0
0 0 0 0 0 0 0 0 0 0 0 0 0 0 0 0 0 0 0 0 0 0 0 0 0 0 0 0 0 0 0 0 0 0 0 0 0 0 0 0 0 0 0 0
0 0 0 0 0 0 0 0 0 0 0 0 0 0 0 0 0 0 0 0 0 0 0 0 0 0 0 0 0 0 0 0 0 0 0 0 0 0 0 0 0 0 0 0
0 0 0 0 0 0 0 0 0 0 0 0 0 0 0 0 0 0 0 0 0 0 0 0 0 0 0 0 0 0 0 0 0 0 0 0 0 0 0 0 0 0 0 0
0 0 0 0 0 0 0 0 0 0 0 0 0 0 0 0 0 0 0 0 0 0 0 0 0 0 0 0 0 0 0 0 0 0 0 0 0 0 0 0 0 0 0 0
0 0 0 0 0 0 0 0 0 0 0 0 0 0 0 0 0 0 0 0 0 0 0 0 0 0 0 0 0 0 0 0 0 0 0 0 0 0 0 0 0 0 0 0
0 0 0 0 0 0 0 0 0 0 0 0 0 0 0 0 0 0 0 0 0 0 0 0 0 0 0 0 0 0 0 0 0 0 0 0 0 0 0 0 0 0 0 0
0 0 0 0 0 0 0 0 0 0 0 0 0 0 0 0 0 0 0 0 0 0 0 0 0 0 0 0 0 0 0 0 0 0 0 0 0 0 0 0 0 0 0 0
0 0 0 0 0 0 0 0 0 0 0 0 0 0 0 0 0 0 0 0 0 0 0 0 0 0 0 0 0 0 0 0 0 0 0 0 0 0 0 0 0 0 0 0
0 0 0 0 0 0 0 0 0 0 0 0 0 0 0 0 0 0 0 0 0 0 0 0 0 0 0 0 0 0 0 0 0 0 0 0 0 0 0 0 0 0 0 0
0 0 0 0 0 0 0 0 0 0 0 0 0 0 0 0 0 0 0 0 0 0 0 0 0 0 0 0 0 0 0 0 0 0 0 0 0 0 0 0 0 0 0 0
0 0 0 0 0 0 0 0 0 0 0 0 0 0 0 0 0 0 0 0 0 0 0 0 0 0 0 0 0 0 0 0 0 0 0 0 0 0 0 0 0 0 0 0
0 0 0 0 0 0 0 0 0 0 0 0 0 0 0 0 0 0 0 0 0 0 0 0 0 0 0 0 0 0 0 0 0 0 0 0 0 0 0 0 0 0 0 0
0 0 0 0 0 0 0 0 0 0 0 0 0 0 0 0 0 0 0 0 0 0 0 0 0 0 0 0 0 0 0 0 0 0 0 0 0 0 0 0 0 0 0 0
0 0 0 0 0 0 0 0 0 0 0 0 0 0 0 0 0 0 0 0 0 0 0 0 0 0 0 0 0 0 0 0 0 0 0 0 0 0 0 0 0 0 0 0
0 0 0 0 0 0 0 0 0 0 0 0 0 0 0 0 0 0 0 0 0 0 0 0 0 0 0 0 0 0 0 0 0 0 0 0 0 0 0 0 0 0 0 0
0 0 0 0 0 0 0 0 0 0 0 0 0 0 0 0 0 0 0 0 0 0 0 0 0 0 0 0 0 0 0 0 0 0 0 0 0 0 0 0 0 0 0 0
0 0 0 0 0 0 0 0 0 0 0 0 0 0 0 0 0 0 0 0 0 0 0 0 0 0 0 0 0 0 0 0 0 0 0 0 0 0 0 0 0 0 0 0
0 0 0 0 0 0 0 0 0 0 0 0 0 0 0 0 0 0 0 0 0 0 0 0 0 0 0 0 0 0 0 0 0 0 0 0 0 0 0 0 0 0 0 0
0 0 0 0 0 0 0 0 0 0 0 0 0 0 0 0 0 0 0 0 0 0 0 0 0 0 0 0 0 0 0 0 0 0 0 0 0 0 0 0 0 0 0 0
0 0 0 0 0 0 0 0 0 0 0 0 0 0 0 0 0 0 0 0 0 0 0 0 0 0 0 0 0 0 0 0 0 0 0 0 0 0 0 0 0 0 0 0
0 0 0 0 0 0 0 0 0 0 0 0 0 0 0 0 0 0 0 0 0 0 0 0 0 0 0 0 0 0 0 0 0 0 0 0 0 0 0 0 0 0 0 0
0 0 0 0 0 0 0 0 0 0 0 0 0 0 0 0 0 0 0 0 0 0 0 0 0 0 0 0 0 0 0 0 0 0 0 0 0 0 0 0 0 0 0 0
0 0 0 0 0 0 0 0 0 0 0 0 0 0 0 0 0 0 0 0 0 0 0 0 0 0 0 0 0 0 0 0 0 0 0 0 0 0 0 0 0 0 0 0
Wind_Speed
4 4 4 5 6 6 6 7 8 6 1 3 6 8 7 5 4 4 4 3 3 2 3 3 3 3 3 3 4 3 3 2 1 1 1 1 1 1 1 1 2 2 2 2
3 6 6 5 6 7 8 8 8 5 1 3 6 9 7 6 7 6 4 4 3 2 3 3 3 3 3 3 3 3 3 2 2 1 1 0 0 0 0 1 1 2 2 1
6 3 4 5 6 7 8 7 6 5 5 5 5 7 8 6 5 4 3 3 3 3 3 3 2 2 3 3 2 2 2 2 2 1 1 0 0 0 1 1 0 1 1 1
4 3 5 6 6 6 7 4 5 3 3 4 3 5 5 5 4 4 4 3 3 3 3 2 2 2 2 2 2 2 2 2 2 1 1 1 0 0 0 1 0 0 0 0
3 2 3 5 6 5 4 4 5 4 4 5 5 5 5 4 4 4 4 4 4 4 3 3 2 2 2 2 2 2 2 1 1 1 1 0 0 0 0 0 0 0 0 0
5 3 2 3 4 3 3 3 4 3 2 6 8 7 5 3 5 5 5 4 4 3 3 3 3 2 2 2 2 1 1 1 1 1 1 1 1 0 0 0 0 1 0 0
4 4 2 2 3 3 2 1 1 2 4 6 5 5 4 2 2 5 6 5 4 4 3 3 3 2 2 2 1 1 1 1 1 1 1 1 1 1 1 1 1 1 1 1
3 3 3 2 3 2 4 4 3 3 3 2 2 5 3 1 3 4 5 5 4 4 3 3 2 2 1 1 1 1 1 1 1 0 1 1 1 1 1 1 1 2 1 1
2 2 1 1 2 2 2 4 3 3 3 4 4 2 1 2 3 4 4 4 4 3 3 2 2 1 1 1 1 0 1 1 1 1 1 1 1 1 2 2 2 2 2 1
2 3 2 1 2 3 3 2 1 3 3 4 4 4 3 4 5 5 4 3 2 2 2 1 1 1 0 0 1 1 1 1 1 1 1 1 1 2 2 2 2 2 2 2
2 2 2 2 3 4 3 3 3 3 3 2 3 2 1 2 3 5 4 2 2 2 2 1 1 1 1 1 1 1 1 2 1 1 1 1 2 2 2 2 2 2 2 2
1 1 3 3 1 2 3 3 3 3 4 3 3 4 2 2 2 3 2 1 1 1 1 1 1 1 1 1 1 2 2 2 2 2 1 2 2 2 2 2 2 2 2 2
1 0 2 2 1 1 2 3 2 2 2 3 4 5 1 3 4 3 1 1 1 1 1 1 0 0 1 1 1 2 2 2 2 2 1 2 2 2 2 3 2 2 2 2
1 1 4 5 4 2 3 4 3 4 4 5 6 6 4 3 3 3 1 0 1 1 0 0 1 1 1 1 2 2 2 2 2 2 1 2 2 2 2 2 2 2 2 2
1 2 4 6 6 4 5 5 5 7 7 7 7 6 6 4 4 3 2 1 0 0 0 1 1 2 1 2 2 2 2 3 2 2 2 2 2 2 2 2 2 2 2 2
0 2 3 6 5 4 6 7 7 8 8 8 8 9 6 5 4 3 2 1 2 2 1 2 2 2 2 2 2 2 2 3 2 2 2 2 2 1 1 2 1 1 2 2
2 2 3 5 3 4 7 6 7 6 5 5 8 8 5 5 4 3 2 2 2 2 2 2 3 2 2 2 2 2 2 2 2 2 2 2 2 1 2 2 1 1 1 1
3 3 3 4 3 7 5 1 3 5 5 4 4 5 5 5 5 2 1 1 2 3 3 3 2 3 2 2 2 2 2 2 2 2 2 2 2 2 2 1 1 1 1 1
3 3 2 2 5 6 2 2 2 2 4 2 4 6 6 5 3 1 3 3 2 3 3 2 2 2 2 2 2 2 2 2 2 2 2 2 2 2 2 1 1 1 1 1
2 1 2 3 5 6 2 2 2 0 3 3 4 5 5 4 2 2 4 4 4 3 2 2 2 1 2 2 2 2 2 2 2 2 2 2 2 1 1 1 1 1 1 1
1 2 3 4 5 5 1 2 1 0 3 5 4 5 4 3 3 4 4 4 3 3 2 2 2 2 2 2 2 2 2 2 3 2 2 2 2 2 2 2 1 1 1 1
3 2 3 3 5 6 2 2 0 2 3 3 4 4 4 4 4 4 4 3 3 3 2 2 2 2 2 2 2 2 2 2 2 2 2 2 2 2 2 2 2 1 1 1
3 3 2 3 4 2 1 1 2 1 3 4 4 4 3 4 4 4 4 3 3 2 2 2 1 2 2 2 2 1 2 2 2 2 2 2 2 2 2 2 2 2 1 1
2 1 2 3 3 3 2 2 2 2 3 3 3 3 3 3 3 3 3 3 2 2 2 2 1 1 2 3 2 2 1 1 2 2 2 2 2 2 2 2 1 1 2 2
3 2 3 4 4 4 3 2 3 3 3 3 3 2 2 2 3 3 2 3 2 2 2 1 1 1 2 2 3 3 2 2 2 2 2 2 2 2 2 2 2 2 2 2
2 3 3 4 3 3 3 3 3 3 3 3 3 3 2 2 2 2 2 2 2 2 2 2 2 2 2 2 2 3 2 2 2 2 2 1 1 1 1 2 2 4 3 5
Wind_Direction
198 226 225 224 226 256 279 276 276 278 244 225 242 254 248 225 216 220 208 193 174 147 117 95 85 83 73 69 67 64 68 57 49 42 42 52 53 44 47 49 47 55 54 42
226 237 250 260 257 263 266 265 272 289 254 252 261 267 258 235 222 211 208 185 160 133 108 99 85 78 69 66 60 64 60 58 53 27 4 32 109 98 95 56 41 36 48 53
233 260 264 259 258 260 258 256 261 273 302 265 269 273 241 221 203 187 184 169 145 140 122 104 88 75 68 57 55 57 59 52 42 25 39 30 46 93 46 29 29 19 36 45
246 263 267 263 262 261 265 279 278 265 262 261 232 276 245 201 186 171 172 161 143 129 120 118 110 91 82 75 63 58 62 58 43 29 33 63 99 136 223 211 197 11 59 78
253 276 277 260 265 265 265 296 273 250 250 267 238 253 255 190 194 186 173 162 144 139 137 137 126 108 89 82 79 62 48 56 57 40 12 360 150 231 312 164 174 235 298 71
251 260 273 283 284 267 293 288 270 247 249 253 223 218 259 210 200 180 167 151 141 138 135 125 108 98 83 73 69 62 45 33 43 34 7 345 319 298 312 298 244 259 261 240
247 225 207 242 267 222 237 222 272 223 216 240 209 205 240 211 152 162 162 149 138 131 128 120 107 91 70 60 48 37 22 358 25 33 357 325 306 309 271 257 249 252 253 250
253 247 184 212 231 229 221 208 213 242 247 276 225 223 216 140 124 128 132 136 139 143 138 128 125 118 90 57 39 26 333 317 328 322 297 299 294 264 267 288 278 255 247 241
281 259 152 223 279 263 238 227 241 271 277 267 238 218 215 152 131 135 139 147 159 154 138 127 115 109 89 43 347 318 316 309 305 283 277 275 280 278 277 280 278 277 269 254
311 286 247 215 244 245 254 270 237 219 248 262 244 221 219 198 189 171 168 175 167 141 124 112 106 85 94 61 325 341 319 295 291 284 271 284 281 275 266 268 264 259 268 265
309 251 265 207 213 228 214 215 230 243 246 249 272 262 5 160 156 164 174 177 160 147 151 142 124 77 31 7 353 343 331 322 308 292 282 282 277 275 274 267 269 268 265 266
308 265 263 247 244 282 247 238 210 225 251 243 258 266 348 53 76 109 124 128 137 146 148 143 129 87 31 355 346 348 338 329 310 297 295 291 287 278 274 271 276 281 279 278
355 180 286 280 245 323 279 264 245 252 272 248 247 260 356 37 38 41 84 126 144 138 118 121 118 51 346 333 339 340 332 320 309 305 302 295 291 281 273 278 283 281 277 284
2 203 221 251 272 274 267 269 245 219 237 253 244 257 287 321 336 339 336 267 141 157 156 33 342 345 338 334 336 338 336 327 317 316 308 298 294 285 278 280 281 285 289 289
104 238 251 270 276 270 266 262 244 232 240 245 260 266 280 295 296 299 296 318 339 277 297 317 318 318 322 329 337 340 335 331 325 332 334 324 317 315 311 306 300 303 304 298
214 238 272 278 268 268 273 270 253 248 253 256 270 275 286 297 303 312 316 281 285 287 305 317 319 320 314 310 320 332 330 329 333 339 333 330 325 325 323 307 304 315 315 311
217 223 259 270 275 297 272 252 240 243 246 250 256 266 301 310 307 292 292 301 292 291 301 296 298 298 300 305 318 316 316 326 334 332 330 337 336 337 324 310 318 311 313 320
213 238 247 277 294 253 247 253 237 234 252 256 271 298 307 298 302 301 336 330 314 308 298 291 293 303 315 328 330 322 324 328 332 336 340 342 350 350 350 2 354 332 339 337
234 215 237 253 267 264 260 297 315 257 276 299 288 299 310 319 320 348 36 22 349 320 310 306 315 328 336 340 342 342 341 345 345 345 345 347 348 351 358 2 344 335 343 328
290 221 218 244 262 270 281 342 333 322 268 345 333 318 328 346 323 295 3 1 347 333 330 344 352 8 4 356 7 5 353 351 339 329 334 341 345 350 346 341 334 331 331 318
271 243 239 249 254 265 283 322 3 215 276 336 345 335 335 321 291 303 335 344 335 330 343 4 13 26 5 359 12 2 1 345 340 350 359 354 354 352 356 358 350 355 1 356
215 219 236 243 244 259 346 17 104 270 321 333 331 332 327 312 313 321 331 334 337 348 356 9 24 14 3 7 10 0 354 346 354 3 3 1 0 357 6 12 6 5 2 358
217 212 218 218 238 282 275 258 267 318 318 322 323 327 319 308 310 325 330 333 340 344 344 355 20 9 356 358 1 352 335 350 359 2 357 355 358 357 2 7 0 358 356 350
244 265 255 269 266 282 278 284 325 333 316 321 326 324 323 311 310 321 326 327 336 339 342 351 9 7 346 345 346 348 343 354 1 360 355 358 2 359 4 8 13 13 6 359
264 250 264 266 278 294 267 297 312 315 319 324 322 318 317 317 315 319 318 321 327 330 326 342 349 333 333 346 351 0 6 16 6 355 351 354 359 358 6 14 19 12 15 8
243 237 240 253 276 281 294 318 322 310 311 314 316 322 330 317 306 319 319 323 327 332 341 354 344 336 333 343 346 351 357 10 8 354 353 355 358 2 6 357 358 6 360 358